When you browse on this site, cookies collect data to enhance your experience and personalize the content and advertising you see.
Visit our Privacy Policy to learn more. By continuing to use the site, you agree to this use of cookies and data.
  • In Deutschland
  • Länderverzeichnis
  • Für 7 Tage
  • Wassertemperatur
  • Satellitenkarten
  • Wetterkarte
  • Widgets
  • user-avatar
    Anmelden

    Stündliche Wetter Shlobin

    Heute, 16 November, Freitag

    Zeit Temperatur Niederschläge Wind Luftdruck Luftfeuchtigkeit
    00:00 -3°C° 0 mm 2 m/S 765 mmHg 91%
    01:00 -4°C° 0 mm 2 m/S 765 mmHg 89%
    02:00 -5°C° 0 mm 2 m/S 766 mmHg 86%
    03:00 -5°C° 0 mm 2 m/S 766 mmHg 85%
    04:00 -5°C° 0 mm 2 m/S 766 mmHg 83%
    05:00 -5°C° 0 mm 2 m/S 767 mmHg 82%
    06:00 -5°C° 0 mm 2 m/S 767 mmHg 80%
    07:00 -5°C° 0 mm 2 m/S 767 mmHg 79%
    08:00 -6°C° 0 mm 3 m/S 768 mmHg 76%
    09:00 -5°C° 0 mm 3 m/S 768 mmHg 71%
    10:00 -4°C° 0 mm 3 m/S 768 mmHg 66%
    11:00 -1°C° 0 mm 3 m/S 768 mmHg 61%
    12:00 -1°C° 0 mm 3 m/S 768 mmHg 61%
    13:00 0°C° 0 mm 3 m/S 768 mmHg 61%
    14:00 0°C° 0 mm 3 m/S 768 mmHg 64%
    15:00 -1°C° 0 mm 3 m/S 768 mmHg 68%
    16:00 -2°C° 0 mm 3 m/S 768 mmHg 73%
    17:00 -4°C° 0 mm 3 m/S 768 mmHg 78%
    18:00 -5°C° 0 mm 3 m/S 769 mmHg 77%
    19:00 -5°C° 0 mm 3 m/S 769 mmHg 76%
    20:00 -5°C° 0 mm 3 m/S 769 mmHg 75%
    21:00 -6°C° 0 mm 3 m/S 769 mmHg 73%
    22:00 -6°C° 0 mm 3 m/S 769 mmHg 71%
    23:00 -6°C° 0 mm 3 m/S 769 mmHg 69%

    Morgen, 17 November, Samstag

    Zeit Temperatur Niederschläge Wind Luftdruck Luftfeuchtigkeit
    00:00 -6°C° 0 mm 3 m/S 769 mmHg 68%
    01:00 -5°C° 0 mm 2 m/S 769 mmHg 66%
    02:00 -5°C° 0 mm 2 m/S 769 mmHg 65%
    03:00 -5°C° 0 mm 2 m/S 769 mmHg 64%
    04:00 -6°C° 0 mm 2 m/S 769 mmHg 62%
    05:00 -6°C° 0 mm 2 m/S 769 mmHg 61%
    06:00 -6°C° 0 mm 2 m/S 769 mmHg 60%
    07:00 -6°C° 0 mm 2 m/S 768 mmHg 59%
    08:00 -6°C° 0 mm 2 m/S 768 mmHg 59%
    09:00 -4°C° 0 mm 2 m/S 768 mmHg 55%
    10:00 -3°C° 0 mm 2 m/S 768 mmHg 52%
    11:00 -1°C° 0 mm 2 m/S 768 mmHg 49%
    12:00 -1°C° 0 mm 2 m/S 768 mmHg 50%
    13:00 +2°C° 0 mm 1 m/S 767 mmHg 52%
    14:00 +2°C° 0 mm 1 m/S 767 mmHg 53%
    15:00 +1°C° 0 mm 1 m/S 766 mmHg 55%
    16:00 -1°C° 0 mm 1 m/S 766 mmHg 57%
    17:00 -2°C° 0 mm 1 m/S 765 mmHg 59%
    18:00 -2°C° 0 mm 1 m/S 765 mmHg 59%
    19:00 -2°C° 0 mm 1 m/S 765 mmHg 59%
    20:00 -2°C° 0 mm 1 m/S 764 mmHg 59%
    21:00 -2°C° 0 mm 1 m/S 764 mmHg 58%
    22:00 -2°C° 0 mm 1 m/S 763 mmHg 57%
    23:00 -4°C° 0 mm 2 m/S 763 mmHg 57%

    übermorgen, 18 November, Sonntag

    Zeit Temperatur Niederschläge Wind Luftdruck Luftfeuchtigkeit
    00:00 -4°C° 0 mm 2 m/S 762 mmHg 57%
    01:00 -4°C° 0 mm 2 m/S 761 mmHg 58%
    02:00 -4°C° 0 mm 2 m/S 761 mmHg 59%
    03:00 -5°C° 0 mm 3 m/S 760 mmHg 59%
    04:00 -4°C° 0 mm 3 m/S 759 mmHg 60%
    05:00 -4°C° 0 mm 3 m/S 758 mmHg 60%
    06:00 -4°C° 0 mm 3 m/S 757 mmHg 63%
    07:00 -2°C° 0 mm 3 m/S 757 mmHg 67%
    08:00 -2°C° 0 mm 3 m/S 756 mmHg 70%
    09:00 -2°C° 0.1 mm 3 m/S 755 mmHg 75%
    10:00 -1°C° 0.1 mm 3 m/S 755 mmHg 80%
    11:00 0°C° 0.1 mm 3 m/S 755 mmHg 85%
    12:00 0°C° 0.1 mm 3 m/S 754 mmHg 86%
    13:00 +1°C° 0.1 mm 2 m/S 754 mmHg 88%
    14:00 +1°C° 0.1 mm 2 m/S 753 mmHg 90%
    15:00 +1°C° 0 mm 2 m/S 753 mmHg 92%
    16:00 -1°C° 0 mm 2 m/S 753 mmHg 94%
    17:00 -1°C° 0 mm 2 m/S 752 mmHg 96%
    18:00 -1°C° 0 mm 2 m/S 752 mmHg 96%
    19:00 -1°C° 0 mm 2 m/S 752 mmHg 97%
    20:00 0°C° 0 mm 1 m/S 752 mmHg 97%
    21:00 +1°C° 0.1 mm 1 m/S 752 mmHg 97%
    22:00 +1°C° 0.1 mm 1 m/S 752 mmHg 97%
    23:00 +1°C° 0.1 mm 1 m/S 752 mmHg 97%

    19 November, Montag

    Zeit Temperatur Niederschläge Wind Luftdruck Luftfeuchtigkeit
    00:00 +1°C° 0.1 mm 1 m/S 752 mmHg 97%
    01:00 +1°C° 0.1 mm 1 m/S 752 mmHg 97%
    02:00 +1°C° 0.1 mm 1 m/S 752 mmHg 97%
    03:00 +1°C° 0 mm 1 m/S 752 mmHg 97%
    04:00 0°C° 0 mm 1 m/S 752 mmHg 97%
    05:00 0°C° 0 mm 1 m/S 752 mmHg 97%
    06:00 0°C° 0 mm 1 m/S 753 mmHg 97%
    07:00 0°C° 0 mm 1 m/S 753 mmHg 97%
    08:00 -2°C° 0 mm 2 m/S 753 mmHg 96%
    09:00 -1°C° 0 mm 2 m/S 754 mmHg 94%
    10:00 -1°C° 0 mm 2 m/S 754 mmHg 93%
    11:00 +2°C° 0 mm 1 m/S 754 mmHg 91%
    12:00 +1°C° 0 mm 2 m/S 754 mmHg 90%
    13:00 +1°C° 0 mm 2 m/S 754 mmHg 90%
    14:00 +1°C° 0 mm 2 m/S 755 mmHg 90%
    15:00 +1°C° 0 mm 2 m/S 755 mmHg 91%
    16:00 -1°C° 0 mm 2 m/S 755 mmHg 92%
    17:00 -1°C° 0 mm 2 m/S 755 mmHg 94%
    18:00 -1°C° 0.1 mm 2 m/S 755 mmHg 94%
    19:00 -2°C° 0.1 mm 2 m/S 755 mmHg 94%
    20:00 -2°C° 0.1 mm 2 m/S 755 mmHg 95%
    21:00 -2°C° 0 mm 2 m/S 756 mmHg 94%
    22:00 -3°C° 0 mm 2 m/S 756 mmHg 94%
    23:00 -3°C° 0 mm 2 m/S 756 mmHg 93%

    20 November, Dienstag

    Zeit Temperatur Niederschläge Wind Luftdruck Luftfeuchtigkeit
    00:00 -4°C° 0 mm 2 m/S 756 mmHg 91%
    01:00 -4°C° 0 mm 2 m/S 756 mmHg 89%
    02:00 -5°C° 0 mm 2 m/S 756 mmHg 87%
    03:00 -5°C° 0 mm 2 m/S 756 mmHg 86%
    04:00 -5°C° 0 mm 2 m/S 756 mmHg 85%
    05:00 -6°C° 0 mm 2 m/S 756 mmHg 83%
    06:00 -5°C° 0 mm 2 m/S 756 mmHg 83%
    07:00 -5°C° 0 mm 2 m/S 756 mmHg 83%
    08:00 -5°C° 0 mm 2 m/S 756 mmHg 83%
    09:00 -4°C° 0 mm 2 m/S 756 mmHg 82%
    10:00 -3°C° 0 mm 2 m/S 756 mmHg 81%
    11:00 -2°C° 0 mm 2 m/S 756 mmHg 80%
    12:00 -2°C° 0 mm 2 m/S 755 mmHg 81%
    13:00 -1°C° 0 mm 2 m/S 755 mmHg 83%
    14:00 -1°C° 0 mm 2 m/S 754 mmHg 85%
    15:00 -1°C° 0 mm 2 m/S 754 mmHg 88%
    16:00 -2°C° 0 mm 2 m/S 754 mmHg 90%
    17:00 -2°C° 0 mm 2 m/S 754 mmHg 93%
    18:00 -2°C° 0 mm 2 m/S 754 mmHg 92%
    19:00 -1°C° 0 mm 2 m/S 754 mmHg 92%
    20:00 -1°C° 0 mm 2 m/S 754 mmHg 92%
    21:00 -1°C° 0 mm 2 m/S 754 mmHg 92%
    22:00 -1°C° 0 mm 2 m/S 754 mmHg 93%
    23:00 -1°C° 0 mm 2 m/S 754 mmHg 93%

    21 November, Mittwoch

    Zeit Temperatur Niederschläge Wind Luftdruck Luftfeuchtigkeit
    00:00 -1°C° 0 mm 3 m/S 753 mmHg 93%
    01:00 -1°C° 0 mm 3 m/S 753 mmHg 92%
    02:00 -1°C° 0 mm 3 m/S 753 mmHg 92%
    03:00 -2°C° 0 mm 4 m/S 753 mmHg 92%
    04:00 -2°C° 0 mm 4 m/S 752 mmHg 92%
    05:00 -2°C° 0 mm 4 m/S 752 mmHg 91%
    06:00 -2°C° 0 mm 4 m/S 752 mmHg 92%
    07:00 -2°C° 0 mm 5 m/S 752 mmHg 92%
    08:00 -2°C° 0 mm 5 m/S 752 mmHg 92%
    09:00 -1°C° 0.2 mm 5 m/S 752 mmHg 91%
    10:00 -1°C° 0.2 mm 5 m/S 751 mmHg 90%
    11:00 -2°C° 0.2 mm 6 m/S 751 mmHg 89%
    12:00 -2°C° 0.4 mm 6 m/S 751 mmHg 89%
    13:00 -2°C° 0.4 mm 6 m/S 751 mmHg 89%
    14:00 -2°C° 0.4 mm 6 m/S 751 mmHg 89%
    15:00 -2°C° 0.4 mm 6 m/S 751 mmHg 89%
    16:00 -2°C° 0.4 mm 6 m/S 751 mmHg 89%
    17:00 -2°C° 0.4 mm 6 m/S 751 mmHg 90%
    18:00 -2°C° 0.3 mm 6 m/S 751 mmHg 90%
    19:00 -2°C° 0.3 mm 6 m/S 751 mmHg 90%
    20:00 -2°C° 0.3 mm 6 m/S 751 mmHg 90%
    21:00 -2°C° 0.3 mm 6 m/S 751 mmHg 90%
    22:00 -2°C° 0.3 mm 6 m/S 751 mmHg 90%
    23:00 -2°C° 0.3 mm 6 m/S 751 mmHg 90%
    Mehr zeigen